SCP
0 0 0 0 0 0 0 0 0 0 0 0 0 0 0 1 1 1 1 1 1 1 1 1 1 1 1 1 1 1 1 1 1 1 1 1 0 0 0 0 0 0 0 0
0 0 0 0 0 0 0 0 0 0 0 0 0 0 1 1 1 1 1 1 1 1 1 1 1 1 1 1 1 1 1 1 1 1 1 1 1 1 1 0 0 0 0 0
0 0 0 0 0 0 0 0 0 0 0 0 0 0 1 1 1 1 1 1 1 1 1 1 1 1 1 1 1 1 1 1 1 1 1 1 1 1 1 1 1 0 0 0
0 0 0 0 0 0 0 0 0 0 0 0 1 1 1 1 1 1 1 1 1 1 1 1 1 1 1 1 1 1 1 1 1 1 1 1 1 1 1 1 1 1 0 0
0 0 0 0 0 0 0 0 0 0 0 0 1 1 1 1 1 1 1 1 1 0 0 0 1 1 1 0 1 1 1 1 1 1 1 1 1 1 1 1 1 1 1 0
0 0 0 0 0 0 0 0 0 0 0 1 1 1 1 1 1 1 1 1 0 0 0 0 0 1 1 1 1 1 1 1 1 1 1 1 1 1 1 1 1 1 1 0
0 0 0 0 0 0 0 0 0 0 0 1 1 1 1 1 1 1 1 1 0 0 0 0 1 1 1 1 1 0 0 0 1 1 1 1 1 1 1 1 1 1 1 0
0 0 0 0 0 0 0 0 0 0 1 1 1 1 1 1 1 1 1 0 0 0 0 1 1 1 1 0 0 0 0 0 0 1 1 1 1 1 2 1 1 1 1 0
0 0 0 0 0 0 0 0 0 0 1 1 1 1 1 1 1 1 1 0 0 0 1 1 1 1 1 0 0 0 0 0 0 1 1 1 1 1 1 1 1 1 1 1
0 0 0 0 0 0 1 1 1 1 1 1 1 1 1 1 1 1 1 0 0 1 1 1 1 1 0 0 0 0 0 0 0 1 1 1 1 1 1 1 1 1 1 1
0 0 0 0 1 1 1 1 1 1 1 1 1 1 1 1 1 1 1 1 0 0 0 0 0 0 0 0 0 0 0 0 0 0 1 1 1 1 1 1 1 1 1 0
1 1 1 1 1 1 1 1 1 1 1 1 1 0 0 0 1 1 1 0 0 0 0 0 0 0 0 0 0 1 0 0 0 0 0 0 0 0 0 0 0 0 0 0
1 1 1 1 1 1 1 1 1 1 1 1 0 0 0 0 0 0 0 0 0 0 0 0 0 0 0 0 0 0 0 0 0 0 0 0 0 0 0 0 0 0 0 0
1 1 2 2 1 1 1 1 1 1 1 1 0 0 0 0 0 0 0 0 0 0 0 0 0 0 0 1 0 0 0 0 0 0 0 0 0 0 0 0 0 0 0 0
1 1 2 1 1 1 1 1 1 1 1 0 0 0 0 0 0 0 0 0 0 0 0 0 0 0 0 1 1 0 0 0 0 0 0 0 0 0 0 0 0 0 0 0
1 1 1 1 1 1 1 1 1 1 0 0 0 0 0 0 0 0 0 0 0 0 0 0 0 0 0 1 1 1 0 0 0 0 0 1 1 0 0 0 0 0 0 0
1 1 1 1 1 1 1 1 0 0 0 0 0 0 0 0 0 0 0 0 0 0 0 0 0 0 0 0 1 1 1 0 0 0 1 1 0 0 0 0 0 0 0 0
1 1 1 1 1 0 0 0 0 0 0 0 0 0 0 0 0 0 0 0 0 0 0 0 0 0 0 0 0 1 1 1 1 1 0 0 0 0 0 0 0 0 0 0
0 0 0 0 0 0 0 0 0 0 0 0 0 0 0 0 0 0 0 0 0 0 0 0 0 0 0 0 0 0 0 0 0 0 0 0 0 0 0 0 0 0 0 0
0 0 0 0 0 0 0 0 0 0 0 0 0 0 0 0 0 0 0 0 0 0 0 0 0 0 0 0 0 0 0 0 0 0 0 0 0 0 0 0 0 0 0 0
0 0 0 0 0 0 0 0 0 0 0 0 0 0 0 0 0 0 0 0 0 0 0 0 0 0 0 0 0 0 0 0 0 0 0 0 0 0 0 0 0 0 0 0
0 0 0 0 0 0 0 0 0 0 0 0 0 0 0 0 0 0 0 0 0 0 0 0 0 0 0 0 0 0 0 0 0 0 0 0 0 0 0 0 0 0 0 0
0 0 0 0 0 0 0 0 0 0 0 0 0 0 0 0 0 0 0 0 0 0 0 0 0 0 0 0 0 0 0 0 0 0 0 0 0 0 0 0 0 0 0 0
0 0 0 0 0 0 0 0 0 0 0 0 0 0 0 0 0 0 0 0 0 0 0 0 0 0 0 0 0 0 0 0 0 0 0 0 0 0 0 0 0 0 0 0
0 0 0 0 0 0 0 0 0 0 0 0 0 0 0 0 0 0 0 0 0 0 0 0 0 0 0 0 0 0 0 0 0 0 0 0 0 0 0 0 0 0 0 0
0 0 0 0 0 0 0 0 0 0 0 0 0 0 0 0 0 0 0 0 0 0 0 0 0 0 0 0 0 0 0 0 0 0 0 0 0 0 0 0 0 0 0 0
0 0 0 0 0 0 0 0 0 0 0 0 0 0 0 0 0 0 0 0 0 0 0 0 0 0 0 0 0 0 0 0 0 0 0 0 0 0 0 0 0 0 0 0
Wind_Speed
4 4 2 3 4 4 3 7 8 8 9 10 10 9 9 9 8 7 5 6 6 6 6 6 5 5 5 5 5 6 5 5 6 5 4 4 4 4 3 3 3 3 3 3
2 2 1 2 3 2 2 3 4 5 5 6 6 6 7 7 9 7 7 6 6 6 6 6 6 6 5 5 5 6 6 5 4 4 4 4 4 4 3 3 3 3 3 3
3 3 3 3 4 2 2 2 5 6 6 5 6 8 10 9 8 8 8 7 6 6 6 6 5 6 6 5 4 4 5 4 4 3 4 4 4 4 4 4 3 3 3 3
1 2 4 9 4 1 2 1 1 3 4 8 9 8 6 8 9 8 7 7 7 6 5 4 4 4 4 4 4 4 4 3 3 4 4 3 4 4 4 4 3 4 4 4
3 2 5 6 4 1 2 2 2 3 6 7 8 8 3 2 6 7 7 7 6 6 5 5 4 4 4 3 3 4 4 4 4 4 4 3 4 5 4 3 3 4 4 4
4 3 5 6 6 3 6 1 4 2 6 7 6 5 3 3 4 5 5 4 5 5 5 4 4 4 4 3 3 3 4 4 4 4 4 5 5 4 3 3 4 3 3 4
4 3 6 6 5 4 4 5 4 1 4 5 4 6 6 5 5 4 4 4 4 6 5 5 5 5 4 3 3 4 3 2 3 4 5 5 4 3 3 3 3 3 3 4
4 3 7 5 2 3 6 3 1 1 2 4 5 6 5 6 6 5 5 4 4 4 4 4 5 6 4 3 3 2 2 2 3 4 4 4 4 3 3 3 3 3 3 3
7 7 6 2 3 4 4 3 2 2 2 5 6 5 4 4 4 4 4 4 3 4 3 2 3 5 5 4 3 2 2 2 3 4 3 3 4 4 3 3 4 3 3 4
1 2 2 1 2 2 3 4 3 4 4 5 5 5 4 3 3 3 3 3 3 4 3 2 2 3 4 3 2 2 2 2 3 3 3 3 3 3 3 4 4 4 4 4
1 2 1 2 0 1 3 5 5 4 3 4 6 5 4 3 3 3 3 2 3 3 3 2 2 2 2 2 3 2 2 2 2 3 3 3 3 3 4 5 5 5 5 4
5 6 4 3 2 3 4 3 4 5 3 2 5 4 3 3 4 4 4 3 3 2 2 2 2 2 2 2 2 2 1 2 3 3 3 3 3 3 3 4 6 7 7 6
5 5 4 3 1 2 2 3 4 4 4 3 2 4 4 2 2 2 3 2 3 2 2 2 2 2 2 2 2 2 2 3 3 3 3 3 3 3 3 4 4 5 6 7
3 3 2 2 2 2 3 3 3 3 4 3 3 3 4 3 2 1 2 2 3 2 2 2 2 2 3 2 2 2 3 3 3 3 2 3 3 3 3 3 3 3 4 6
2 4 4 3 3 3 3 5 5 4 3 3 3 3 2 2 1 1 2 2 2 2 1 2 2 3 3 2 2 3 3 2 2 2 2 2 2 2 3 3 3 3 3 4
2 1 3 4 4 3 4 5 5 3 3 3 2 2 1 1 1 1 1 2 2 2 3 3 3 4 3 2 2 2 3 4 3 2 2 2 2 2 2 3 3 3 4 4
1 1 2 3 3 3 4 4 4 4 3 3 2 2 2 2 1 2 3 2 3 3 3 3 4 4 3 2 2 2 2 3 3 2 2 2 2 2 3 3 3 3 4 4
3 3 3 4 4 3 3 3 3 3 3 3 3 2 2 2 2 3 3 2 1 2 2 3 3 2 2 2 1 1 1 1 1 2 2 2 2 2 2 2 3 3 3 3
1 1 1 2 3 3 3 3 3 3 2 2 3 2 2 1 2 2 2 1 1 2 4 3 2 1 1 2 1 1 1 1 1 2 2 3 2 2 2 2 2 3 3 2
1 2 2 2 2 3 3 3 3 2 2 2 2 1 1 1 1 1 1 2 3 3 3 2 1 1 1 2 2 1 1 1 1 2 2 2 2 2 2 2 3 3 3 3
2 3 3 3 2 2 2 2 3 2 2 2 2 2 2 2 1 1 0 2 4 2 2 2 1 1 2 2 2 1 1 1 1 1 2 2 2 2 2 3 3 2 2 2
2 3 4 4 4 2 1 1 2 2 2 1 2 1 1 1 0 0 1 3 3 2 1 1 2 2 2 2 1 1 1 1 1 1 1 1 1 2 2 3 2 2 2 2
2 3 3 3 3 2 2 2 2 2 2 1 1 1 1 1 1 2 1 2 1 1 1 1 2 3 2 1 0 1 1 1 1 1 1 1 2 2 2 2 2 2 2 2
2 3 3 3 3 4 3 2 2 2 1 1 0 0 1 0 1 1 1 1 1 1 1 2 3 2 1 0 0 1 1 1 1 1 1 1 1 1 1 2 2 2 2 2
1 2 2 3 2 1 0 1 2 2 2 1 2 1 1 1 1 1 0 0 1 1 1 2 3 2 1 0 1 1 1 1 1 1 1 1 1 1 2 2 2 2 2 2
1 1 1 2 1 1 0 1 1 1 1 1 2 2 1 1 1 1 1 1 2 2 2 1 1 1 1 1 2 1 1 1 2 1 1 1 1 1 1 2 2 2 2 2
1 1 1 1 1 0 1 1 1 0 1 1 1 2 1 1 1 2 2 2 2 2 1 1 1 1 1 1 2 2 2 2 2 2 2 2 1 1 2 2 2 2 2 2
Wind_Direction
213 216 203 232 238 218 188 183 183 207 195 205 196 180 171 161 146 132 135 143 147 152 154 153 155 166 174 177 177 173 173 189 202 205 201 201 202 207 208 211 218 219 207 210
305 278 304 292 273 244 215 186 185 172 214 213 178 150 142 150 147 148 158 159 156 154 150 156 164 172 174 177 181 176 181 195 204 202 201 203 206 205 202 213 222 216 212 216
264 294 23 278 239 227 242 213 165 183 215 168 139 153 163 161 158 164 166 164 163 161 162 166 171 169 177 183 175 173 187 197 200 197 203 206 201 198 208 216 219 221 218 210
165 54 224 241 247 194 137 42 109 154 160 158 158 162 158 157 162 169 166 162 162 157 156 157 153 149 161 161 165 177 190 197 205 208 211 210 207 214 220 218 217 220 220 218
131 182 262 296 313 357 118 349 350 132 139 139 124 90 56 144 154 159 161 165 164 160 155 146 148 149 142 161 178 186 198 210 209 203 209 215 222 225 224 217 221 219 213 217
138 168 217 249 288 322 97 8 321 103 144 151 125 122 208 185 137 129 130 127 136 134 130 142 162 147 136 161 180 207 216 219 216 206 208 217 225 223 220 217 224 222 227 230
160 203 250 259 291 51 109 229 274 140 142 147 156 175 177 145 123 124 117 117 123 128 142 168 163 143 149 168 200 218 222 224 225 222 218 219 221 222 221 215 222 228 232 242
152 186 248 279 50 130 204 226 195 99 107 114 120 122 127 127 129 129 122 125 126 130 146 157 152 148 158 194 219 217 218 233 237 235 233 229 225 229 223 212 222 233 238 253
179 207 238 259 164 177 159 129 102 97 89 109 111 116 121 122 128 129 129 129 128 127 131 136 152 155 172 211 212 214 239 250 251 249 243 235 221 221 224 218 223 234 235 245
107 244 247 17 70 85 112 118 112 109 110 109 113 117 113 123 125 120 112 114 116 112 118 133 151 160 185 203 194 191 238 265 262 255 258 250 229 215 217 223 226 231 231 242
158 250 31 355 29 123 76 80 81 67 71 114 121 121 129 140 143 141 134 128 131 134 141 173 173 174 187 184 170 180 232 263 268 251 240 239 238 228 222 224 217 220 228 226
210 218 181 217 219 140 107 99 111 102 68 92 124 129 128 147 149 142 141 136 131 135 148 180 176 192 206 194 175 179 233 262 268 268 251 236 240 270 264 249 248 238 235 232
207 211 185 188 177 123 115 127 129 125 132 128 112 123 122 120 110 122 129 142 158 180 190 199 190 214 226 205 183 199 234 255 267 264 252 235 233 237 266 288 284 265 258 248
190 145 140 166 176 141 123 126 117 115 124 133 124 112 111 109 103 133 173 188 181 179 193 209 204 236 241 213 205 230 243 255 261 249 243 241 238 237 236 241 271 283 275 259
223 178 180 166 138 130 133 129 121 123 124 115 120 117 126 127 151 226 214 185 158 160 205 214 223 247 246 224 226 241 246 259 262 254 245 251 254 258 255 249 250 263 274 281
258 158 149 143 152 157 148 150 150 163 161 149 137 139 152 154 178 241 251 181 164 207 231 223 237 249 241 228 239 250 253 264 262 255 261 269 266 258 263 261 256 256 257 256
181 200 163 157 166 170 174 177 173 174 163 157 170 160 136 134 166 268 272 247 207 224 231 224 234 244 235 226 233 250 264 279 276 272 266 268 266 257 253 252 254 257 259 250
205 201 199 180 168 168 173 161 153 148 157 165 162 145 142 163 219 244 257 265 274 282 270 246 236 240 249 249 245 251 254 260 266 269 274 278 276 267 254 246 251 259 272 270
197 168 156 151 146 142 139 142 150 151 153 144 142 155 168 193 230 246 251 242 236 260 269 261 247 251 267 275 273 252 251 269 289 289 282 286 289 280 268 266 270 270 269 263
82 122 124 123 130 139 144 146 141 137 150 154 154 154 151 222 259 293 280 256 240 229 238 241 228 235 259 274 279 254 251 258 263 273 278 282 286 291 290 283 277 271 263 255
82 107 110 117 113 113 133 141 142 156 183 178 179 204 213 227 208 171 242 289 287 262 230 222 223 243 258 265 260 248 253 267 275 272 281 289 294 297 297 294 286 275 267 263
86 101 100 99 92 70 49 102 140 153 160 179 196 207 206 239 254 164 233 236 256 265 260 253 255 253 263 269 256 235 245 277 279 285 294 295 298 302 302 302 294 290 289 284
86 94 94 95 98 86 49 48 65 85 99 120 157 184 195 214 191 166 250 275 273 281 284 265 281 289 287 280 280 276 280 273 277 283 284 289 296 299 301 308 311 311 309 309
85 93 97 96 88 77 51 21 40 64 74 84 123 185 170 126 320 281 225 262 329 346 336 329 346 342 343 14 356 320 295 290 296 292 290 300 309 317 324 332 336 337 336 337
107 100 96 93 86 84 95 1 45 48 41 26 11 357 354 157 186 244 227 88 42 34 9 351 4 13 49 46 16 357 336 339 327 316 346 10 2 359 353 353 353 342 340 351
139 143 149 146 152 161 142 75 51 15 48 38 359 357 8 17 54 65 59 51 38 33 27 12 18 31 44 48 40 26 10 6 3 6 19 40 35 19 2 353 350 354 355 358
79 84 90 70 36 74 130 129 120 83 69 77 25 1 16 21 33 53 52 47 42 41 29 20 27 35 40 45 41 28 13 10 15 11 17 26 27 12 358 354 358 360 1 8